Pascagoula, MS

4:24 AM CST on November 21, 2017 (GMT -0600)
Lott International

Weather History for KPQL - September, 2013

Change the Weather History Date:

Monday, September 2, 2013

  Actual Average Record
Temperature  
Mean Temperature 82 °F -  
Max Temperature 90 °F 88 °F 97 °F (1963)
Min Temperature 75 °F 73 °F 63 °F (1967)
Cooling Degree Days 17    
Growing Degree Days 32 (Base 50)    
Moisture  
Dew Point 75 °F    
Average Humidity 81    
Maximum Humidity 97    
Minimum Humidity 61    
Precipitation  
Precipitation 0.01 in - - ()
Sea Level Pressure  
Sea Level Pressure 29.94 in    
Wind  
Wind Speed 2 mph (SW)    
Max Wind Speed 10 mph    
Max Gust Speed 22 mph    
Visibility 10 miles    
Events Rain , Thunderstorm    
Averages and records for this station are not official NWS values.
T = Trace of Precipitation, MM = Missing Value Source: NWS Daily Summary

Daily Weather History Graph

Daily Weather History Graph

Search for Another Location

Airport or City:

Trip Planner

Search our weather history database for the weather conditions in past years. The results will help you decide how hot, cold, wet, or windy it might be!

Date:

Astronomy

Sep. 02, 2013 Rise Set
Actual Time 6:31 AM CDT 7:15 PM CDT
Civil Twilight 6:07 AM CDT 7:39 PM CDT
Nautical Twilight 5:38 AM CDT 8:08 PM CDT
Astronomical Twilight 5:08 AM CDT 8:37 PM CDT
Moon 3:55 AM CDT (9/2) 5:23 PM CDT (9/2)
Length of Visible Light 13h 32m
Length of Day
12h 43m
Waning Crescent, 8% of the Moon is Illuminated
Sep 2
Waning Crescent
Sep 5
New
Sep 12
First Quarter
Sep 19
Full
Sep 26
Last Quarter

Hourly Weather History & Observations

Time (CDT) Temp. Heat Index Dew Point Humidity Pressure Visibility Wind Dir Wind Speed Gust Speed Precip Events Conditions
12:53 AM 81.0 °F 87.9 °F 77.0 °F 88% 29.93 in 10.0 mi Calm Calm - N/A   Clear
1:53 AM 81.0 °F 87.9 °F 77.0 °F 88% 29.93 in 10.0 mi Calm Calm - N/A   Partly Cloudy
2:53 AM 81.0 °F 87.9 °F 77.0 °F 88% 29.92 in 10.0 mi SW 3.5 mph - N/A   Clear
3:53 AM 81.0 °F 87.9 °F 77.0 °F 88% 29.92 in 10.0 mi Calm Calm - N/A   Partly Cloudy
4:53 AM 78.1 °F - 75.9 °F 93% 29.93 in 10.0 mi Calm Calm - N/A   Clear
5:53 AM 75.9 °F - 75.0 °F 97% 29.93 in 8.0 mi Calm Calm - N/A   Clear
6:53 AM 77.0 °F - 75.0 °F 94% 29.95 in 10.0 mi Calm Calm - N/A   Clear
7:53 AM 80.1 °F 85.4 °F 75.9 °F 87% 29.97 in 10.0 mi West 3.5 mph - N/A   Clear
8:53 AM 84.0 °F 92.6 °F 75.9 °F 76% 29.98 in 10.0 mi NW 5.8 mph - N/A   Clear
9:53 AM 86.0 °F 93.8 °F 73.9 °F 67% 29.99 in 10.0 mi West 6.9 mph - N/A   Clear
10:53 AM 88.0 °F 96.5 °F 73.9 °F 63% 30.00 in 10.0 mi Variable 3.5 mph - N/A   Clear
11:53 AM 88.0 °F 95.6 °F 73.0 °F 61% 29.99 in 10.0 mi Variable 3.5 mph - N/A   Partly Cloudy
12:53 PM 87.1 °F 96.3 °F 75.0 °F 67% 29.97 in 10.0 mi Variable 4.6 mph - N/A   Mostly Cloudy
1:31 PM 86.0 °F 95.1 °F 75.2 °F 70% 29.95 in 10.0 mi SSW 6.9 mph - 0.00 in Thunderstorm Thunderstorm
1:48 PM 78.8 °F - 73.4 °F 83% 29.95 in 6.0 mi SSW 9.2 mph 21.9 mph 0.01 in Rain , Thunderstorm Light Thunderstorms and Rain
1:53 PM 78.1 °F - 73.0 °F 84% 29.95 in 7.0 mi SSW 10.4 mph 18.4 mph 0.01 in Rain , Thunderstorm Light Thunderstorms and Rain
2:12 PM 80.6 °F 85.4 °F 73.4 °F 79% 29.93 in 10.0 mi South 4.6 mph - 0.00 in   Scattered Clouds
2:28 PM 84.2 °F 92.3 °F 75.2 °F 74% 29.92 in 10.0 mi South 3.5 mph - 0.00 in Thunderstorm Clear
2:53 PM 89.1 °F 100.2 °F 75.9 °F 65% 29.91 in 10.0 mi SSW 5.8 mph - 0.00 in Thunderstorm Clear
3:53 PM 84.0 °F 92.6 °F 75.9 °F 76% 29.91 in 10.0 mi WNW 6.9 mph - N/A   Clear
4:53 PM 82.0 °F 88.6 °F 75.0 °F 79% 29.90 in 10.0 mi Calm Calm - N/A   Clear
5:53 PM 82.9 °F 90.8 °F 75.9 °F 79% 29.90 in 10.0 mi Calm Calm - N/A   Clear
6:53 PM 82.9 °F 90.8 °F 75.9 °F 79% 29.90 in 10.0 mi South 3.5 mph - N/A   Clear
7:53 PM 82.0 °F 90.2 °F 77.0 °F 85% 29.91 in 10.0 mi Calm Calm - N/A   Clear
8:53 PM 81.0 °F 87.3 °F 75.9 °F 85% 29.93 in 10.0 mi Calm Calm - N/A   Clear
9:53 PM 80.1 °F 85.4 °F 75.9 °F 87% 29.94 in 10.0 mi SSW 3.5 mph - N/A   Clear
10:53 PM 81.0 °F 86.7 °F 75.0 °F 82% 29.94 in 10.0 mi Calm Calm - N/A   Clear
11:53 PM 77.0 °F - 75.0 °F 94% 29.93 in 10.0 mi Calm Calm - N/A   Clear